• In Portugal
  • List of Countries
  • For 7 days
  • Water Temperature
  • Satellite Maps
  • Weather Map
  • Weather Widgets
  • user-avatar
    Login

    Hourly Weather Tarin Kowt

    Today, 23 January, Tuesday

    Time Temperature Precipitation Wind Pressure Humidity
    00:00 +1°C° 0 mm 1 mps 613 mmHg 76%
    01:00 +1°C° 0 mm 1 mps 613 mmHg 77%
    02:00 +1°C° 0 mm 1 mps 613 mmHg 76%
    03:00 +1°C° 0 mm 1 mps 613 mmHg 75%
    04:00 0°C° 0 mm 1 mps 613 mmHg 76%
    05:00 0°C° 0 mm 1 mps 613 mmHg 75%
    06:00 0°C° 0 mm 1 mps 613 mmHg 73%
    07:00 0°C° 0 mm 1 mps 613 mmHg 72%
    08:00 +2°C° 0 mm 1 mps 614 mmHg 62%
    09:00 +4°C° 0 mm 1 mps 615 mmHg 52%
    10:00 +5°C° 0 mm 0 mps 616 mmHg 42%
    11:00 +7°C° 0 mm 1 mps 615 mmHg 39%
    12:00 +8°C° 0 mm 1 mps 615 mmHg 35%
    13:00 +8°C° 0 mm 2 mps 615 mmHg 32%
    14:00 +8°C° 0 mm 2 mps 615 mmHg 31%
    15:00 +9°C° 0 mm 2 mps 615 mmHg 31%
    16:00 +9°C° 0 mm 2 mps 615 mmHg 31%
    17:00 +8°C° 0 mm 1 mps 614 mmHg 36%
    18:00 +7°C° 0 mm 1 mps 614 mmHg 41%
    19:00 +6°C° 0 mm 1 mps 614 mmHg 45%
    20:00 +5°C° 0 mm 1 mps 614 mmHg 47%
    21:00 +5°C° 0 mm 1 mps 613 mmHg 49%
    22:00 +3°C° 0 mm 0 mps 613 mmHg 50%
    23:00 +3°C° 0 mm 0 mps 613 mmHg 51%

    Tomorrow, 24 January, Wednesday

    Time Temperature Precipitation Wind Pressure Humidity
    00:00 +3°C° 0 mm 0 mps 613 mmHg 51%
    01:00 +2°C° 0 mm 0 mps 613 mmHg 52%
    02:00 +2°C° 0 mm 0 mps 612 mmHg 51%
    03:00 +1°C° 0 mm 0 mps 612 mmHg 51%
    04:00 +2°C° 0 mm 1 mps 611 mmHg 51%
    05:00 +1°C° 0 mm 0 mps 612 mmHg 50%
    06:00 +1°C° 0 mm 0 mps 612 mmHg 49%
    07:00 +1°C° 0 mm 0 mps 612 mmHg 48%
    08:00 +3°C° 0 mm 0 mps 613 mmHg 40%
    09:00 +5°C° 0 mm 0 mps 614 mmHg 33%
    10:00 +8°C° 0 mm 0 mps 615 mmHg 26%
    11:00 +10°C° 0 mm 1 mps 615 mmHg 24%
    12:00 +11°C° 0 mm 1 mps 615 mmHg 21%
    13:00 +12°C° 0 mm 2 mps 615 mmHg 19%
    14:00 +12°C° 0 mm 2 mps 615 mmHg 19%
    15:00 +12°C° 0 mm 2 mps 615 mmHg 19%
    16:00 +12°C° 0 mm 2 mps 615 mmHg 18%
    17:00 +9°C° 0 mm 2 mps 615 mmHg 22%
    18:00 +8°C° 0 mm 1 mps 614 mmHg 25%
    19:00 +7°C° 0 mm 1 mps 614 mmHg 29%
    20:00 +6°C° 0 mm 1 mps 614 mmHg 29%
    21:00 +6°C° 0 mm 1 mps 614 mmHg 30%
    22:00 +4°C° 0 mm 0 mps 614 mmHg 30%
    23:00 +4°C° 0 mm 0 mps 614 mmHg 30%

    Day after tomorrow, 25 January, Thursday

    Time Temperature Precipitation Wind Pressure Humidity
    00:00 +4°C° 0 mm 1 mps 613 mmHg 31%
    01:00 +4°C° 0 mm 1 mps 613 mmHg 31%
    02:00 +4°C° 0 mm 1 mps 613 mmHg 31%
    03:00 +4°C° 0 mm 1 mps 613 mmHg 31%
    04:00 +3°C° 0 mm 1 mps 613 mmHg 31%
    05:00 +3°C° 0 mm 1 mps 613 mmHg 31%
    06:00 +3°C° 0 mm 1 mps 613 mmHg 31%
    07:00 +3°C° 0 mm 1 mps 614 mmHg 31%
    08:00 +6°C° 0 mm 1 mps 615 mmHg 27%
    09:00 +8°C° 0 mm 1 mps 616 mmHg 24%
    10:00 +10°C° 0 mm 1 mps 617 mmHg 20%
    11:00 +10°C° 0 mm 2 mps 617 mmHg 19%
    12:00 +12°C° 0 mm 2 mps 617 mmHg 18%
    13:00 +13°C° 0 mm 2 mps 616 mmHg 17%
    14:00 +13°C° 0 mm 2 mps 616 mmHg 17%
    15:00 +13°C° 0 mm 2 mps 616 mmHg 18%
    16:00 +12°C° 0 mm 2 mps 616 mmHg 18%
    17:00 +10°C° 0 mm 2 mps 616 mmHg 22%
    18:00 +9°C° 0 mm 1 mps 615 mmHg 25%
    19:00 +8°C° 0 mm 1 mps 615 mmHg 29%
    20:00 +7°C° 0 mm 1 mps 615 mmHg 29%
    21:00 +7°C° 0 mm 1 mps 615 mmHg 30%
    22:00 +6°C° 0 mm 1 mps 615 mmHg 31%
    23:00 +6°C° 0 mm 1 mps 615 mmHg 31%

    26 January, Friday

    Time Temperature Precipitation Wind Pressure Humidity
    00:00 +5°C° 0 mm 1 mps 615 mmHg 31%
    01:00 +5°C° 0 mm 1 mps 614 mmHg 31%
    02:00 +5°C° 0 mm 1 mps 614 mmHg 31%
    03:00 +3°C° 0 mm 2 mps 614 mmHg 32%
    04:00 +3°C° 0 mm 2 mps 614 mmHg 32%
    05:00 +3°C° 0 mm 2 mps 614 mmHg 32%
    06:00 +3°C° 0 mm 2 mps 614 mmHg 32%
    07:00 +2°C° 0 mm 2 mps 615 mmHg 32%
    08:00 +4°C° 0 mm 2 mps 615 mmHg 28%
    09:00 +7°C° 0 mm 1 mps 616 mmHg 24%
    10:00 +10°C° 0 mm 1 mps 617 mmHg 20%
    11:00 +10°C° 0 mm 1 mps 617 mmHg 19%
    12:00 +11°C° 0 mm 1 mps 617 mmHg 17%
    13:00 +12°C° 0 mm 1 mps 617 mmHg 16%
    14:00 +12°C° 0 mm 2 mps 616 mmHg 16%
    15:00 +12°C° 0 mm 2 mps 616 mmHg 16%
    16:00 +12°C° 0 mm 2 mps 616 mmHg 16%
    17:00 +10°C° 0 mm 2 mps 616 mmHg 20%
    18:00 +8°C° 0 mm 2 mps 615 mmHg 23%
    19:00 +8°C° 0 mm 1 mps 615 mmHg 26%
    20:00 +7°C° 0 mm 1 mps 615 mmHg 27%
    21:00 +6°C° 0 mm 1 mps 615 mmHg 28%
    22:00 +6°C° 0 mm 1 mps 615 mmHg 29%
    23:00 +5°C° 0 mm 1 mps 614 mmHg 29%

    27 January, Saturday

    Time Temperature Precipitation Wind Pressure Humidity
    00:00 +5°C° 0 mm 1 mps 614 mmHg 29%
    01:00 +4°C° 0 mm 1 mps 614 mmHg 30%
    02:00 +4°C° 0 mm 1 mps 613 mmHg 30%
    03:00 +4°C° 0 mm 1 mps 613 mmHg 30%
    04:00 +3°C° 0 mm 1 mps 613 mmHg 30%
    05:00 +3°C° 0 mm 1 mps 613 mmHg 31%
    06:00 +3°C° 0 mm 1 mps 613 mmHg 31%
    07:00 +3°C° 0 mm 1 mps 613 mmHg 31%
    08:00 +5°C° 0 mm 1 mps 614 mmHg 27%
    09:00 +7°C° 0 mm 1 mps 615 mmHg 23%
    10:00 +9°C° 0 mm 1 mps 616 mmHg 19%
    11:00 +10°C° 0 mm 1 mps 616 mmHg 18%
    12:00 +10°C° 0 mm 2 mps 615 mmHg 17%
    13:00 +12°C° 0 mm 2 mps 615 mmHg 15%
    14:00 +12°C° 0 mm 2 mps 615 mmHg 16%
    15:00 +12°C° 0 mm 2 mps 615 mmHg 16%
    16:00 +12°C° 0 mm 2 mps 614 mmHg 16%
    17:00 +9°C° 0 mm 2 mps 614 mmHg 19%
    18:00 +9°C° 0 mm 1 mps 614 mmHg 22%
    19:00 +7°C° 0 mm 1 mps 614 mmHg 25%
    20:00 +7°C° 0 mm 1 mps 613 mmHg 26%
    21:00 +6°C° 0 mm 1 mps 613 mmHg 26%
    22:00 +6°C° 0 mm 1 mps 613 mmHg 27%
    23:00 +6°C° 0 mm 1 mps 613 mmHg 27%

    28 January, Sunday

    Time Temperature Precipitation Wind Pressure Humidity
    00:00 +5°C° 0 mm 1 mps 612 mmHg 27%
    01:00 +5°C° 0 mm 1 mps 612 mmHg 27%
    02:00 +5°C° 0 mm 1 mps 612 mmHg 27%
    03:00 +4°C° 0 mm 1 mps 611 mmHg 28%
    04:00 +4°C° 0 mm 1 mps 611 mmHg 28%
    05:00 +4°C° 0 mm 1 mps 611 mmHg 27%
    06:00 +4°C° 0 mm 1 mps 611 mmHg 27%
    07:00 +3°C° 0 mm 2 mps 611 mmHg 27%
    08:00 +6°C° 0 mm 2 mps 612 mmHg 24%
    09:00 +9°C° 0 mm 1 mps 613 mmHg 20%
    10:00 +11°C° 0 mm 1 mps 614 mmHg 17%
    11:00 +12°C° 0 mm 2 mps 614 mmHg 15%
    12:00 +13°C° 0 mm 2 mps 613 mmHg 14%
    13:00 +14°C° 0 mm 2 mps 613 mmHg 13%
    14:00 +14°C° 0 mm 2 mps 612 mmHg 14%
    15:00 +13°C° 0 mm 3 mps 612 mmHg 14%
    16:00 +13°C° 0 mm 3 mps 611 mmHg 14%
    17:00 +12°C° 0 mm 3 mps 611 mmHg 17%
    18:00 +12°C° 0 mm 3 mps 611 mmHg 20%
    19:00 +12°C° 0 mm 2 mps 611 mmHg 23%
    20:00 +10°C° 0.1 mm 3 mps 611 mmHg 27%
    21:00 +10°C° 0.1 mm 3 mps 610 mmHg 30%
    22:00 +9°C° 0.1 mm 3 mps 610 mmHg 34%
    23:00 +9°C° 0.1 mm 3 mps 610 mmHg 38%
    Show more